IGO251V VAAH-VABB

Flight info

Callsign IGO251V
Flight time 0h 31m
Altitude 35000
Route BVR1A BVR R458 BOFIN POKON2A
Aircraft A320/M-SDE3FGHIRWY/LB1

Departure

Time 2026-04-29 03:29
Airport Sardar Vallabh Patel International Airport (VAAH)

Arrival

Time 2026-04-29 04:01
Airport Chhatrapati Shivaji Maharaj International Airport (VABB)
Time Latitude Longitude Altitude Speed Heading
2026-04-29 02:59 23.07244 72.61775 205 ft 0 kts 45°
2026-04-29 03:18 23.07233 72.61763 212 ft 4 kts 50°
2026-04-29 03:18 23.07218 72.61740 210 ft 4 kts 68°
2026-04-29 03:18 23.07214 72.61714 207 ft 4 kts 119°
2026-04-29 03:18 23.07218 72.61707 206 ft 0 kts 134°
2026-04-29 03:21 23.07210 72.61716 207 ft 3 kts 134°
2026-04-29 03:22 23.07185 72.61744 195 ft 7 kts 134°
2026-04-29 03:22 23.07141 72.61793 201 ft 10 kts 134°
2026-04-29 03:22 23.07085 72.61855 195 ft 13 kts 135°
2026-04-29 03:22 23.07015 72.61931 195 ft 15 kts 134°
2026-04-29 03:23 23.06935 72.62021 201 ft 18 kts 134°
2026-04-29 03:23 23.06891 72.62072 210 ft 5 kts 126°
2026-04-29 03:23 23.06893 72.62099 205 ft 7 kts 64°
2026-04-29 03:23 23.06903 72.62156 193 ft 11 kts 116°
2026-04-29 03:24 23.06847 72.62227 197 ft 13 kts 118°
2026-04-29 03:24 23.06893 72.62309 200 ft 15 kts 45°
2026-04-29 03:24 23.06973 72.62396 199 ft 17 kts 45°
2026-04-29 03:24 23.07067 72.62498 197 ft 21 kts 45°
2026-04-29 03:25 23.07178 72.62618 199 ft 23 kts 45°
2026-04-29 03:25 23.07300 72.62746 190 ft 26 kts 44°
2026-04-29 03:25 23.07432 72.62886 195 ft 27 kts 44°
2026-04-29 03:25 23.07569 72.63031 203 ft 28 kts 44°
2026-04-29 03:26 23.07713 72.63181 198 ft 30 kts 44°
2026-04-29 03:26 23.07852 72.63330 198 ft 21 kts 45°
2026-04-29 03:26 23.07921 72.63429 194 ft 16 kts 68°
2026-04-29 03:26 23.08001 72.63529 196 ft 19 kts 45°
2026-04-29 03:27 23.08102 72.63638 197 ft 22 kts 45°
2026-04-29 03:27 23.08215 72.63760 192 ft 24 kts 44°
2026-04-29 03:27 23.08336 72.63889 198 ft 24 kts 44°
2026-04-29 03:27 23.08463 72.64025 197 ft 27 kts 45°
2026-04-29 03:28 23.08576 72.64146 193 ft 17 kts 45°
2026-04-29 03:28 23.08579 72.64247 198 ft 14 kts 137°
2026-04-29 03:28 23.08497 72.64272 202 ft 13 kts 213°
2026-04-29 03:28 23.08423 72.64195 205 ft 20 kts 225°
2026-04-29 03:29 23.08167 72.63922 203 ft 85 kts 224°
2026-04-29 03:29 23.07612 72.63327 202 ft 136 kts 225°
2026-04-29 03:29 23.06836 72.62510 355 ft 163 kts 223°
2026-04-29 03:29 23.06032 72.61660 1017 ft 161 kts 224°
2026-04-29 03:30 23.05245 72.60808 1704 ft 159 kts 225°
2026-04-29 03:30 23.04455 72.59954 2156 ft 166 kts 230°
2026-04-29 03:30 23.03585 72.59009 2364 ft 188 kts 229°
2026-04-29 03:30 23.02605 72.57946 2543 ft 212 kts 229°
2026-04-29 03:31 23.00284 72.55447 3240 ft 254 kts 229°
2026-04-29 03:31 22.99008 72.54092 3963 ft 259 kts 229°
2026-04-29 03:31 22.97707 72.52719 4733 ft 262 kts 229°
2026-04-29 03:32 22.96390 72.51331 5469 ft 266 kts 229°
2026-04-29 03:32 22.95054 72.49922 6203 ft 270 kts 228°
2026-04-29 03:32 22.93570 72.48628 6896 ft 278 kts 216°
2026-04-29 03:32 22.91803 72.47722 7611 ft 285 kts 202°
2026-04-29 03:33 22.89858 72.47201 8351 ft 289 kts 197°
2026-04-29 03:33 22.87883 72.46717 9094 ft 292 kts 196°
2026-04-29 03:33 22.85896 72.46227 9822 ft 294 kts 196°
2026-04-29 03:33 22.83837 72.45715 10100 ft 314 kts 196°
2026-04-29 03:34 22.81665 72.45169 10301 ft 332 kts 196°
2026-04-29 03:34 22.79384 72.44601 10800 ft 339 kts 196°
2026-04-29 03:34 22.77065 72.44029 11372 ft 343 kts 196°
2026-04-29 03:34 22.74724 72.43455 11979 ft 347 kts 196°
2026-04-29 03:35 22.72358 72.42873 12581 ft 350 kts 196°
2026-04-29 03:35 22.69971 72.42284 13182 ft 353 kts 196°
2026-04-29 03:35 22.67562 72.41686 13757 ft 357 kts 197°
2026-04-29 03:35 22.65130 72.41084 14290 ft 360 kts 197°
2026-04-29 03:36 22.62674 72.40476 14838 ft 363 kts 197°
2026-04-29 03:36 22.60207 72.39868 15375 ft 366 kts 197°
2026-04-29 03:36 22.57716 72.39255 15914 ft 368 kts 197°
2026-04-29 03:36 22.55206 72.38636 16455 ft 371 kts 197°
2026-04-29 03:37 22.52678 72.38012 16993 ft 374 kts 197°
2026-04-29 03:37 22.50132 72.37382 17529 ft 377 kts 197°
2026-04-29 03:37 22.47567 72.36748 18060 ft 380 kts 197°
2026-04-29 03:37 22.44979 72.36109 18524 ft 383 kts 197°
2026-04-29 03:38 22.42369 72.35465 18970 ft 387 kts 197°
2026-04-29 03:38 22.39734 72.34814 19432 ft 390 kts 196°
2026-04-29 03:38 22.37076 72.34160 19913 ft 393 kts 196°
2026-04-29 03:38 22.34397 72.33503 20392 ft 397 kts 196°
2026-04-29 03:39 22.31695 72.32840 20871 ft 400 kts 196°
2026-04-29 03:39 22.28969 72.32168 21346 ft 403 kts 196°
2026-04-29 03:39 22.26253 72.31498 21814 ft 407 kts 195°
2026-04-29 03:39 22.23480 72.30814 22295 ft 410 kts 195°
2026-04-29 03:40 22.20686 72.30128 22769 ft 414 kts 195°
2026-04-29 03:40 22.17859 72.29434 23234 ft 417 kts 195°
2026-04-29 03:40 22.15019 72.28739 23638 ft 420 kts 195°
2026-04-29 03:40 22.12156 72.28040 24025 ft 423 kts 195°
2026-04-29 03:41 22.09267 72.27333 24422 ft 425 kts 195°
2026-04-29 03:41 22.06377 72.26627 24806 ft 427 kts 195°
2026-04-29 03:41 22.03506 72.25924 25174 ft 430 kts 196°
2026-04-29 03:41 22.00544 72.25197 25540 ft 432 kts 196°
2026-04-29 03:42 21.97638 72.24483 25897 ft 435 kts 196°
2026-04-29 03:42 21.94682 72.23758 26248 ft 437 kts 197°
2026-04-29 03:42 21.91709 72.23030 26601 ft 439 kts 197°
2026-04-29 03:42 21.88717 72.22299 26923 ft 442 kts 197°
2026-04-29 03:43 21.85714 72.21565 27251 ft 444 kts 197°
2026-04-29 03:43 21.82684 72.20827 27570 ft 446 kts 197°
2026-04-29 03:43 21.79645 72.20087 27879 ft 449 kts 197°
2026-04-29 03:43 21.75646 72.19550 28256 ft 459 kts 185°
2026-04-29 03:44 21.62821 72.22228 29414 ft 478 kts 171°
2026-04-29 03:44 21.49908 72.25524 30406 ft 488 kts 170°
2026-04-29 03:44 21.36584 72.29005 31252 ft 497 kts 170°
2026-04-29 03:44 21.23091 72.32519 32298 ft 498 kts 169°
2026-04-29 03:45 21.09636 72.36006 33527 ft 496 kts 169°
2026-04-29 03:45 20.96183 72.39489 34409 ft 500 kts 169°
2026-04-29 03:45 20.90606 72.40927 34719 ft 501 kts 169°
2026-04-29 03:45 20.85034 72.42352 34821 ft 502 kts 169°
2026-04-29 03:46 20.71404 72.44862 34853 ft 492 kts 188°
2026-04-29 03:46 20.58565 72.40654 34866 ft 485 kts 205°
2026-04-29 03:46 20.46030 72.35609 33872 ft 470 kts 205°
2026-04-29 03:46 20.33823 72.30624 31537 ft 475 kts 206°
2026-04-29 03:47 20.21756 72.25725 28588 ft 474 kts 205°
2026-04-29 03:47 20.09998 72.20978 26987 ft 440 kts 205°
2026-04-29 03:47 19.98822 72.16447 24647 ft 432 kts 204°
2026-04-29 03:47 19.87763 72.11978 22603 ft 419 kts 203°
2026-04-29 03:48 19.78018 72.09254 21734 ft 393 kts 172°
2026-04-29 03:48 19.75448 72.10036 21722 ft 380 kts 156°
2026-04-29 03:48 19.73218 72.11469 21304 ft 373 kts 140°
2026-04-29 03:48 19.71294 72.13288 20744 ft 369 kts 138°
2026-04-29 03:49 19.69395 72.15110 20200 ft 365 kts 138°
2026-04-29 03:49 19.67520 72.16907 19676 ft 361 kts 138°
2026-04-29 03:49 19.65664 72.18679 19171 ft 357 kts 139°
2026-04-29 03:49 19.63817 72.20435 18682 ft 353 kts 139°
2026-04-29 03:50 19.61997 72.22161 18188 ft 349 kts 139°
2026-04-29 03:50 19.58779 72.25206 17340 ft 340 kts 139°
2026-04-29 03:50 19.51794 72.31820 15588 ft 333 kts 139°
2026-04-29 03:50 19.44941 72.38314 14040 ft 329 kts 139°
2026-04-29 03:51 19.38215 72.44680 12648 ft 321 kts 140°
2026-04-29 03:51 19.31639 72.50886 11269 ft 313 kts 140°
2026-04-29 03:51 19.25272 72.56908 9725 ft 299 kts 140°
2026-04-29 03:51 19.22079 72.60580 9048 ft 280 kts 115°
2026-04-29 03:52 19.21586 72.62534 8683 ft 278 kts 95°
2026-04-29 03:52 19.21567 72.64575 8465 ft 278 kts 90°
2026-04-29 03:52 19.21548 72.69934 7922 ft 277 kts 90°
2026-04-29 03:52 19.21491 72.78065 7159 ft 276 kts 89°
2026-04-29 03:53 19.21435 72.86112 6371 ft 272 kts 88°
2026-04-29 03:53 19.21377 72.94163 5706 ft 267 kts 88°
2026-04-29 03:53 19.21322 73.01518 4756 ft 269 kts 88°
2026-04-29 03:53 19.21303 73.03472 4536 ft 262 kts 88°
2026-04-29 03:54 19.21284 73.05405 4460 ft 263 kts 88°
2026-04-29 03:54 19.21266 73.07314 4297 ft 257 kts 89°
2026-04-29 03:54 19.20918 73.09166 4200 ft 258 kts 114°
2026-04-29 03:54 19.19833 73.10620 4047 ft 250 kts 143°
2026-04-29 03:55 19.18316 73.11351 3896 ft 239 kts 172°
2026-04-29 03:55 19.16714 73.11316 3777 ft 225 kts 198°
2026-04-29 03:55 19.15357 73.10667 3694 ft 207 kts 214°
2026-04-29 03:55 19.14126 73.09905 3556 ft 203 kts 214°
2026-04-29 03:56 19.12932 73.09168 3441 ft 201 kts 214°
2026-04-29 03:56 19.11702 73.08406 3336 ft 201 kts 214°
2026-04-29 03:56 19.10514 73.07626 3224 ft 199 kts 223°
2026-04-29 03:56 19.09620 73.06546 3117 ft 193 kts 244°
2026-04-29 03:57 19.09162 73.05237 3037 ft 188 kts 264°
2026-04-29 03:57 19.09100 73.03859 2864 ft 188 kts 272°
2026-04-29 03:57 19.09081 73.02477 2640 ft 187 kts 272°
2026-04-29 03:57 19.09063 73.01154 2413 ft 172 kts 272°
2026-04-29 03:58 19.09046 72.99941 2225 ft 155 kts 271°
2026-04-29 03:58 19.09032 72.98827 2019 ft 148 kts 271°
2026-04-29 03:58 19.09018 72.97747 1821 ft 146 kts 270°
2026-04-29 03:58 19.09005 72.96676 1646 ft 146 kts 269°
2026-04-29 03:59 19.08990 72.95602 1459 ft 146 kts 269°
2026-04-29 03:59 19.08976 72.94531 1273 ft 145 kts 269°
2026-04-29 03:59 19.08962 72.93468 1087 ft 144 kts 269°
2026-04-29 03:59 19.08948 72.92405 908 ft 144 kts 268°
2026-04-29 04:00 19.08934 72.91358 745 ft 145 kts 268°
2026-04-29 04:00 19.08919 72.90283 569 ft 144 kts 268°
2026-04-29 04:00 19.08905 72.89226 380 ft 144 kts 267°
2026-04-29 04:00 19.08889 72.88174 190 ft 143 kts 267°
2026-04-29 04:01 19.08876 72.87124 60 ft 138 kts 267°
2026-04-29 04:01 19.08864 72.86260 48 ft 93 kts 269°
2026-04-29 04:01 19.08858 72.85804 48 ft 35 kts 272°
2026-04-29 04:01 19.08903 72.85598 47 ft 27 kts 294°
2026-04-29 04:02 19.08946 72.85500 48 ft 9 kts 294°
2026-04-29 04:02 19.08974 72.85436 48 ft 11 kts 296°
2026-04-29 04:02 19.09014 72.85404 49 ft 12 kts 349°
2026-04-29 04:02 19.09078 72.85391 49 ft 8 kts 323°
2026-04-29 04:03 19.09123 72.85366 49 ft 7 kts 358°
2026-04-29 04:03 19.09151 72.85366 47 ft 0 kts 360°
2026-04-29 04:03 19.09156 72.85366 48 ft 0 kts 360°